STARLINK-31873, 59790

Orbit data source: Space-Track

STARLINK-31873, 59790 is a payload satellite owned by SpaceX/Seattle (US) in LEO that was launched on Sat, 18 May 2024 UTC via an FALCON 9 launch vehicle from the Air Force Eastern Test Range (AFETR). Payload-class satellites include a variety of spacecraft equipped with specific instruments for various scientific and technological missions. These include communications satellites like Starlink; space stations such as the ISS; scientific satellites like the Hubble; Earth observation satellites from companies like Planet Labs, Umbra, and HawkEye 360; GPS; miniature CubeSats for education and research; and military/defense satellites.

Loading next visibility...
Identifier
59790, 2024-093J
Orbit
LEO
Country
Flag of USUS
Related business
Manufacturer
SpaceX/Seattle
Mission
Operational Commercial Communications
Bus & Motor
STARLINK V2M, Unknown motor
Mass
730 kg wet, ~700 kg dry
Launch date (UTC)
2024-05-18 (1 year ago)
Launch vehicle
FALCON 9
Launch site
Air Force Eastern Test Range (AFETR)
Object type
Payload
Rocket body
Debris
Shape & HBR
Box + 2 Pan, 17.7 m
Radar Cross Section
33.884 m², Large (>1 m²)

Expand to show TLE details & history
Last TLE update: 18 hours ago

TLE from 18 hours ago
0 STARLINK-31873
1 59790U 24093J   25306.42485090  .00005211  00000-0  19886-3 0  9990
2 59790  42.9986 207.4712 0001108 293.9110  66.1625 15.27562463 83231
Epoch: 2025-11-02T10:11Z
TLE epoch observation values (Epoch: 2025-11-02T10:11:47.117Z)
Latitude
-0.00006°
Longitude
12.58404°
Altitude
482.57 km
Speed
7.626 km/s
True Right ascension
13h 49m 53s
True Declination
0° 00' 00"
Sunlit
Object was in daylight at epoch
Visualization orbit readout
Latitude
Unknown
Longitude
Unknown
Altitude
Unknown
Speed
Unknown
Apparent Right ascension
Unknown
Apparent Declination
Unknown
Sunlit
N/A
Visualization observer readout
Local Sidereal Time
23:58:46
Azimuth
Unknown
Elevation
Unknown
Doppler factor
Unknown
Orbital elements
Apogee altitude
485.807 km
Perigee altitude
484.287 km
Semi-major axis
6,863.184 km
Eccentricity
0.00011
Inclination
42.9986°
RAAN
207.4712°
Arg. of periapsis
293.911°
True anomaly
66.17411°
Mean anomaly
66.1625°
Eccentric anomaly
66.16831°
Mean motion
3.81729 °/min
Orbital period
94.31 mins
BSTAR
0.00019886
Loading maneuver chart data...
Computing Atmospheric mass density...
Loading historical data...
Loading historical data...
Loading historical data...
Loading historical data...
Loading historical data...
Loading historical data...
Loading historical data...

Documentation

Showing up to 5 results
|